Weather History for Middletown, OH

Change the Weather History Date:

Wednesday, December 12, 2012

  Actual Average (KDAY) Record (KDAY)
Temperature  
Mean Temperature 31 °F 32 °F  
Max Temperature 42 °F 39 °F 62 °F (1972)
Min Temperature 20 °F 25 °F -3 °F (1960)
Degree Days  
Heating Degree Days 34 33  
Month to date heating degree days 373  
Since 1 July heating degree days 1484  
Cooling Degree Days 0 0  
Month to date cooling degree days 0  
Year to date cooling degree days 891  
Moisture  
Dew Point 26 °F    
Average Humidity 90    
Maximum Humidity 100    
Minimum Humidity 52    
Precipitation  
Precipitation 0.00 in 0.10 in 0.97 in (1959)
Month to date precipitation 1.24  
Year to date precipitation 39.17  
Snow  
Snow 0.00 in 0.20 in 6.00 in (1898)
Month to date snowfall 1.3  
Since 1 July snowfall 2.3  
Snow Depth -    
Sea Level Pressure  
Sea Level Pressure 30.37 in    
Wind  
Wind Speed 0 mph (East)    
Max Wind Speed 4 mph    
Max Gust Speed -    
Visibility 8 miles    
Events      
T = Trace of Precipitation, MM = Missing Value Source: NWS Daily Summary

Daily Weather History Graph

Daily Weather History Graph

Search for Another Location

Airport:

Trip Planner

Search our weather history database for the weather conditions in past years. The results will help you decide how hot, cold, wet, or windy it might be!

Date:

Astronomy

Dec. 12, 2012 Rise Set
Actual Time 7:49 AM EST 5:14 PM EST
Civil Twilight 7:18 AM EST 5:44 PM EST
Nautical Twilight 6:45 AM EST 6:18 PM EST
Astronomical Twilight 6:12 AM EST 6:50 PM EST
Moon 6:52 AM EST (12/12) 4:50 PM EST (12/12)
Length of Visible Light 10h 25m
Length of Day
9h 25m
Waning Crescent, 1% of the Moon is Illuminated
Dec 12
Waning Crescent
Dec 13
New
Dec 20
First Quarter
Dec 28
Full
Jan 4
Last Quarter

Hourly Weather History & Observations

Time (EST) Temp. Windchill Dew Point Humidity Pressure Visibility Wind Dir Wind Speed Gust Speed Precip Events Conditions
12:15 AM 25.3 °F - 25.3 °F 100% 30.27 in 7.0 mi Calm Calm - N/A   Clear
12:35 AM 25.3 °F - 25.3 °F 100% 30.27 in 5.0 mi Calm Calm - N/A   Clear
12:55 AM 25.3 °F - 25.3 °F 100% 30.28 in 5.0 mi Calm Calm - N/A   Clear
1:15 AM 24.3 °F - 24.3 °F 100% 30.28 in 4.0 mi Calm Calm - N/A   Clear
1:35 AM 25.0 °F - 25.0 °F 100% 30.29 in 5.0 mi Calm Calm - N/A   Clear
1:55 AM 24.6 °F - 24.6 °F 100% 30.29 in 5.0 mi Calm Calm - N/A   Clear
2:15 AM 22.8 °F - 22.8 °F 100% 30.29 in 4.0 mi Calm Calm - N/A   Clear
2:35 AM 22.8 °F - 22.8 °F 100% 30.29 in 4.0 mi Calm Calm - N/A   Clear
2:55 AM 22.8 °F - 22.8 °F 100% 30.30 in 7.0 mi Calm Calm - N/A   Clear
3:15 AM 22.8 °F - 22.8 °F 100% 30.30 in 5.0 mi Calm Calm - N/A   Clear
3:35 AM 21.6 °F - 21.6 °F 100% 30.31 in 7.0 mi Calm Calm - N/A   Clear
3:55 AM 22.8 °F - 22.8 °F 100% 30.32 in 7.0 mi Calm Calm - N/A   Clear
4:15 AM 21.9 °F - 21.9 °F 100% 30.32 in 7.0 mi Calm Calm - N/A   Clear
4:35 AM 21.9 °F - 21.9 °F 100% 30.33 in 2.5 mi Calm Calm - N/A   Clear
4:55 AM 20.7 °F - 20.7 °F 100% 30.34 in 3.0 mi Calm Calm - N/A   Clear
5:15 AM 20.3 °F - 20.3 °F 100% 30.34 in 3.0 mi Calm Calm - N/A   Clear
5:35 AM 20.3 °F - 20.3 °F 100% 30.35 in 4.0 mi Calm Calm - N/A   Clear
5:55 AM 21.6 °F - 21.6 °F 100% 30.35 in 5.0 mi Calm Calm - N/A   Clear
6:15 AM 21.0 °F - 21.0 °F 100% 30.35 in 5.0 mi Calm Calm - N/A   Clear
6:35 AM 21.0 °F - 21.0 °F 100% 30.37 in 7.0 mi Calm Calm - N/A   Clear
6:55 AM 21.0 °F - 21.0 °F 100% 30.37 in 7.0 mi Calm Calm - N/A   Clear
7:15 AM 21.0 °F - 21.0 °F 100% 30.37 in 7.0 mi Calm Calm - N/A   Clear
7:35 AM 20.3 °F - 20.3 °F 100% 30.37 in 5.0 mi Calm Calm - N/A   Clear
7:55 AM 20.3 °F - 20.3 °F 100% 30.38 in 4.0 mi Calm Calm - N/A   Clear
8:15 AM 20.5 °F - 20.5 °F 100% 30.38 in 4.0 mi Calm Calm - N/A   Clear
8:35 AM 21.2 °F - 21.2 °F 100% 30.39 in 4.0 mi Calm Calm - N/A   Clear
8:55 AM 23.2 °F - 23.2 °F 100% 30.40 in 4.0 mi Calm Calm - N/A   Clear
9:15 AM 25.9 °F - 25.9 °F 100% 30.40 in 5.0 mi Calm Calm - N/A   Clear
9:35 AM 27.9 °F - 27.9 °F 100% 30.41 in 5.0 mi Calm Calm - N/A   Clear
9:55 AM 27.9 °F - 27.9 °F 100% 30.41 in 7.0 mi Calm Calm - N/A   Clear
10:15 AM 30.2 °F - 30.2 °F 100% 30.42 in 7.0 mi Calm Calm - N/A   Clear
10:35 AM 32.5 °F - 31.8 °F 97% 30.42 in 10.0 mi Calm Calm - N/A   Clear
10:55 AM 32.9 °F - 30.6 °F 91% 30.42 in 10.0 mi Calm Calm - N/A   Clear
11:15 AM 35.1 °F - 31.5 °F 87% 30.43 in 10.0 mi Calm Calm - N/A   Clear
11:35 AM 35.1 °F - 30.2 °F 82% 30.42 in 10.0 mi Calm Calm - N/A   Clear
11:55 AM 37.6 °F - 31.8 °F 80% 30.41 in 10.0 mi Calm Calm - N/A   Clear
12:15 PM 37.6 °F - 30.2 °F 75% 30.41 in 10.0 mi Calm Calm - N/A   Clear
12:35 PM 38.8 °F - 29.8 °F 70% 30.40 in 10.0 mi Calm Calm - N/A   Clear
12:55 PM 40.1 °F - 29.3 °F 65% 30.39 in 10.0 mi Calm Calm - N/A   Clear
1:15 PM 40.1 °F - 28.9 °F 64% 30.38 in 10.0 mi Calm Calm - N/A   Clear
1:35 PM 40.3 °F - 29.5 °F 65% 30.38 in 10.0 mi Calm Calm - N/A   Clear
1:55 PM 40.6 °F - 29.1 °F 64% 30.37 in 10.0 mi Calm Calm - N/A   Clear
2:15 PM 41.2 °F - 28.2 °F 60% 30.37 in 10.0 mi Calm Calm - N/A   Clear
2:55 PM 41.9 °F 40.0 °F 28.0 °F 58% 30.37 in 10.0 mi East 3.5 mph - N/A   Clear
3:15 PM 41.7 °F - 26.8 °F 55% 30.37 in 10.0 mi Calm Calm - N/A   Clear
3:35 PM 41.9 °F - 26.6 °F 55% 30.37 in 10.0 mi Calm Calm - N/A   Clear
3:55 PM 41.9 °F 40.0 °F 27.0 °F 55% 30.36 in 10.0 mi SE 3.5 mph - N/A   Clear
4:15 PM 41.4 °F - 25.2 °F 53% 30.37 in 10.0 mi Calm Calm - N/A   Clear
4:35 PM 42.3 °F - 25.9 °F 52% 30.37 in 10.0 mi Calm Calm - N/A   Clear
4:55 PM 40.1 °F - 26.8 °F 59% 30.37 in 10.0 mi Calm Calm - N/A   Clear
5:15 PM 40.1 °F - 26.4 °F 58% 30.37 in 10.0 mi Calm Calm - N/A   Clear
5:35 PM 35.1 °F - 31.8 °F 88% 30.38 in 10.0 mi Calm Calm - N/A   Clear
5:55 PM 32.5 °F - 30.4 °F 92% 30.38 in 10.0 mi Calm Calm - N/A   Clear
6:15 PM 32.5 °F - 30.9 °F 94% 30.39 in 10.0 mi Calm Calm - N/A   Clear
6:35 PM 30.2 °F - 28.4 °F 93% 30.39 in 10.0 mi Calm Calm - N/A   Clear
6:55 PM 29.7 °F - 28.4 °F 95% 30.39 in 10.0 mi Calm Calm - N/A   Clear
7:15 PM 27.9 °F - 27.3 °F 98% 30.39 in 10.0 mi Calm Calm - N/A   Clear
7:55 PM 28.4 °F - 27.5 °F 96% 30.40 in 10.0 mi Calm Calm - N/A   Clear
8:15 PM 27.9 °F - 27.1 °F 97% 30.40 in 10.0 mi Calm Calm - N/A   Clear
8:35 PM 27.9 °F - 27.7 °F 99% 30.41 in 10.0 mi Calm Calm - N/A   Clear
8:55 PM 27.9 °F - 27.9 °F 100% 30.41 in 10.0 mi Calm Calm - N/A   Clear
9:15 PM 27.9 °F - 27.5 °F 99% 30.41 in 10.0 mi Calm Calm - N/A   Clear
9:35 PM 27.9 °F - 27.9 °F 100% 30.41 in 10.0 mi Calm Calm - N/A   Clear
9:55 PM 27.9 °F - 27.9 °F 100% 30.41 in 10.0 mi Calm Calm - N/A   Clear
10:15 PM 27.9 °F - 27.9 °F 100% 30.41 in 10.0 mi Calm Calm - N/A   Clear
10:35 PM 27.9 °F - 27.9 °F 100% 30.41 in 10.0 mi Calm Calm - N/A   Clear
10:55 PM 27.9 °F 24.0 °F 27.9 °F 100% 30.42 in 10.0 mi North 3.5 mph - N/A   Clear
11:15 PM 27.9 °F - 27.9 °F 100% 30.42 in 10.0 mi Calm Calm - N/A   Clear
11:35 PM 25.5 °F - 25.5 °F 100% 30.41 in 10.0 mi Calm Calm - N/A   Clear
11:55 PM 25.3 °F - 25.3 °F 100% 30.40 in 10.0 mi Calm Calm - N/A   Clear